Regional Weather Roundup
Issued by NWS Wakefield, VA

Home | Current Version | Previous Version | Text Only | Print | Product List | Glossary On
Versions: 1 2 3 4 5 6 7 8 9 10 11 12 13 14 15 16 17 18 19 20 21 22 23 24 25 26 27 28 29 30 31 32 33 34 35 36 37 38 39 40 41 42 43 44 45 46 47 48 49 50
000
ASUS41 KAKQ 260814
RWRAKQ

REGIONAL WEATHER ROUNDUP
NATIONAL WEATHER SERVICE WAKEFIELD VA
400 AM EDT TUE MAY 26 2015

Note: "fair" indicates few or no clouds below 12,000 feet with no
significant weather and/or obstructions to visibility. * = Denotes
station may not report precipitation (e.g., rain,snow,etc.),
thunder or fog.

VAZ042-051-052>054-056-260900-
NORTHERN VIRGINIA

CITY           SKY/WX    TMP DP  RH WIND       PRES   REMARKS
WASH NATIONAL  PTCLDY    70  59  68 S13       30.20S
DULLES         PTCLDY    66  56  70 S10       30.19S
FORT BELVOIR   CLEAR     67  59  76 VRB5      30.20S
QUANTICO       PTCLDY    68  58  70 SW9       30.21F
FREDERICKSBRG* PTCLDY    66  59  79 S6        30.21S
STAFFORD*      PTCLDY    62  57  83 SE3       30.25S
WARRENTON      PTCLDY    64  59  83 S5        30.20S
CULPEPER*      PTCLDY    59  56  87 S3        30.21S
MANASSAS*      PTCLDY    63  57  82 S6        30.19F
LEESBURG*      PTCLDY    64  59  82 S5        30.20S
WINCHESTER     CLEAR     68  52  56 CALM      30.18S
FRONT ROYAL*   FAIR      66  55  68 SW7       30.17S
LURAY*         FAIR      64  57  77 SW5       30.21S
$$

VAZ048-049-060>072-079>083-260900-
CENTRAL AND SOUTH CENTRAL VIRGINIA

CITY           SKY/WX    TMP DP  RH WIND       PRES   REMARKS
RICHMOND       CLEAR     66  59  78 S8        30.24S
CHESTERFIELD*  NOT AVBL
PETERSBURG*    CLEAR     62  59  91 CALM      30.26S
HANOVER        CLEAR     66  59  78 S7        30.25S
TAPPAHANNOCK*  CLEAR     65  56  72 S5        30.25S
QUINTON*       FAIR      65  60  82 SE5       30.25S
CHARLOTTSVILLE CLEAR     62  56  80 S7        30.21S
GORDONSVILLE*  FAIR      57  55  94 CALM      30.21S
ORANGE*        CLEAR     59  55  88 CALM      30.23S
LOUISA*        CLEAR     63  57  82 CALM      30.22S
BUMPASS*       FAIR      63  58  81 SW5       30.23R
FARMVILLE*     CLEAR     65  61  87 SW6       30.23R
CREWE*         FAIR      62  59  88 S3        30.25R
FORT PICKETT*  FAIR      63  61  94 S6        30.25S
CHASE CITY*    FAIR      67  64  90 CALM      30.25S
CLARKSVILLE*   FAIR      64  61  88 S8        30.24S
SOUTH HILL*    CLEAR     63  60  90 CALM      30.31S
LAWRENCEVILLE* FAIR      63  61  94 CALM      30.25F
EMPORIA*       CLEAR     59  57  94 CALM      30.28S
$$

VAZ088>098-260900-
SOUTHEAST VIRGINIA

CITY           SKY/WX    TMP DP  RH WIND       PRES   REMARKS
NORFOLK        CLEAR     66  59  78 SW10      30.27R
VIRGINIA BEACH CLEAR     67  61  81 S6        30.27R
NORFOLK NAVAL  CLEAR     72  60  66 S8        30.28R
WEST POINT*    CLEAR     70  60  71 S7        30.27S
SALUDA*        FAIR      67  61  81 S5G18     30.25S
NEWPORT NEWS   CLEAR     71  61  70 SW14      30.27R
LANGLEY AFB    CLEAR     68  61  78 SW13      30.26R
FORT EUSTIS    CLEAR     67  63  87 S7        30.25R
WILLIAMSBURG*  CLEAR     70  63  78 CALM      30.27S
HR EXEC AP*    FAIR      64  59  82 S6        30.29S
FRANKLIN*      CLEAR     62  60  93 S5        30.28S
WAKEFIELD      CLEAR     65  60  84 VRB3      30.26S
$$

VAZ020-022-025-037-045-260900-
WEST CENTRAL AND SOUTHWEST VIRGINIA

CITY           SKY/WX    TMP DP  RH WIND       PRES   REMARKS
STAUNTON*      CLEAR     58  54  87 CALM      30.25R
WAYNESBORO*    FAIR      57  54  87 CALM      30.24S
HOT SPRINGS VA PTCLDY    61  54  78 W14       30.31F
LYNCHBURG      CLEAR     60  57  89 SW5       30.25S
DANVILLE       CLEAR     65  60  84 CALM      30.25R
SOUTH BOSTON*  FAIR      64  59  83 SW3       30.25S
MARTINSVILLE   PTCLDY    56  56 100 CALM      30.28R
ROANOKE        PTCLDY    61  56  83 CALM      30.26S
BLACKSBURG     MOCLDY    57  55  91 CALM      30.30S
DUBLIN*        MOCLDY    59  58  97 CALM      30.29R
MARION*        MOCLDY    64  58  81 CALM      30.30S
HILLSVILLE*    MOCLDY    64  59  86 S8        30.30R
RICHLANDS*     PTSUNNY   67  58  74 CALM      30.27S
WISE*          CLOUDY    66  55  68 S8        30.27F
ABINGDON*      MOCLDY    65  60  82 CALM      30.25R
$$

MDZ021>025-VAZ099-100-260900-
SOUTHERN MARYLAND AND THE DELMARVA PENINSULA

CITY           SKY/WX    TMP DP  RH WIND       PRES   REMARKS
PATUXENT RIVER CLEAR     68  60  75 S13G18    30.23R
BAY BRIDGE APT   N/A    N/A N/A N/A S13       30.20F
LEONARDTOWN    CLEAR     66  59  77 SW10      30.25S
DOVER          CLEAR     65  63  94 S10       30.19S
GEORGETOWN     CLEAR     63  59  87 S7        30.24S
EASTON         CLEAR     69  63  79 SW10      30.25S
CAMBRIDGE      CLEAR     72  61  68 S6        30.23S
SALISBURY      CLEAR     60  58  92 CALM      30.25R
OCEAN CITY     CLEAR     66  63  90 SW6       30.26R
WALLOPS ISLAND CLEAR     63  62  97 SW7       30.27R
ACCOMACK*      CLEAR     64  61  88 S7        30.26S
$$

NCZ012>017-030>032-260900-
NORTH CENTRAL AND EASTERN NORTH CAROLINA

CITY           SKY/WX    TMP DP  RH WIND       PRES   REMARKS
ROANOKE RAPIDS FAIR      61  59  94 S5        30.27S
RALEIGH        MOCLDY    67  62  84 SW9       30.27S
ELIZABETH CITY CLEAR     63  61  93 S5        30.29R
AHOSKIE*       CLEAR     60  59  96 CALM      30.28
EDENTON*       CLEAR     67  63  85 S5        30.28S
CURRITUCK*     CLEAR    N/A N/A N/A CALM      30.29R
KILL DEVIL HLS CLEAR     70  62  76 SW5       30.28S
MANTEO         CLEAR     71  63  76 SW12      30.29S
CAPE HATTERAS  PTCLDY    72  62  71 S13       30.29S
TARBORO*       FAIR      61  60  94 CALM      30.28F
GOLDSBORO      NOT AVBL
WASHINGTON     CLEAR     66  62  87 CALM      30.28S
GREENVILLE     CLEAR     63  61  94 CALM      30.29S
NEW BERN       MOCLDY    62  58  86 CALM      30.29S
WILMINGTON     CLEAR     65  61  87 CALM      30.26S
$$

VAZ048-260900-
ELSEWHERE

CITY           SKY/WX    TMP DP  RH WIND       PRES   REMARKS
HARRISBURG PA  PTCLDY    67  61  81 SE5       30.16S
BALTIMORE      PTCLDY    64  59  83 CALM      30.19S
ANNAPOLIS      CLEAR     66  58  75 S6        30.20S
ANDREWS AFB    CLEAR     66  59  77 S10       30.19F
PHILADELPHIA   PTCLDY    66  56  70 S8        30.21S
HENDERSON NC   PTCLDY    63  59  88 S5        30.26F
GREENSBORO     MOCLDY    67  63  87 S7        30.25S
ROCKY MOUNT    CLEAR     63  60  90 CALM      30.27F
$$

VAZ100-260900-
MARINE

STATION/POSITION TIME  TEMP    WIND        PRES    WAVE   SWELL
                       AIR SEA DIR/SP/G            HT/PER HT/PER
                 (UTC) (F)     (DEG/KT/KT) (MB)    (FT/S) (FT/S)
BRANDYWINE LGT   0700   66 65  220/ 16/ 18 1023.5F
CAPE MAY NJ      0700   64 68  180/  6/  8 1023.3F
LEWES DE         0700   67 64  210/  7/ 11 1023.6S
15NM E FENWICK I 0750   63 60              1024.1R   3/ 4
OCEAN-CITY-INLET 0700   63 60  210/ 12/ 14 1024.0F
WACHAPREAGUE VA  0700   68 71  230/  6/  9 1024.7S
THOMAS POINT MD  0800   68 66  190/ 15/ 16 1023.3R
GOOSES REEF MD   0800   69 67  220/ 14/ 16 1024.0F   2/ 3
SOLOMONS ISLAND  0700      70                N/A
BISHOPS HEAD MD  0700   70 71  190/ 14/ 17 1023.4R
PINEY POINT MD   0700          230/ 15/ 17   N/A
CAMBRIDGE MD     0700   69 71  200/  4/  7 1023.4R
LEWISETTA VA     0700   69 71              1023.5S
RAPPAHANNOCK LGT 0700          200/ 17/ 19 1024.8S
STINGRAY PT      0800   70 69  210/ 14/ 16 1024.0R   1/ 2
YORK RVR RNG VA  0700   70     210/ 16/ 19 1023.6R
YORKTOWN VA      0700   69 71  200/  9/ 12 1024.2R
JAMESTOWN VA     0800   67 74  210/ 12/ 16 1023.5R
DOMINION TERM VA 0700   70     210/ 12/ 16 1024.7S
KIPTOPEKE VA     0700      73  200/ 13/ 15   N/A
CHES BAY BRIDGE  0700   69 66  180/ 15/ 18 1024.1F
CAPE HENRY VA    0700   68     190/ 11/ 13 1023.4F
CHESAPEAKE LGHT  0700   67     200/ 19/ 19 1025.2F
WILLOUBY STN VA  0700   69     200/ 14/ 16 1025.2S
CAPE HENRY BUOY  0728      65                N/A     2/ 7
1ST LANDING BUOY 0800      68              1024.5R
CAPE CHARLES BUO 0726      67                N/A     2/ 3   2/ 6
OFFSHORE WE BUOY 0711      65                N/A     2/ 3   2/ 8
64NM E OF VA BCH 0750   65 63  180/  8/ 10 1025.3R   1/ 6   2/ 6
DUCK PIER NC     0700   71 61  200/  9/ 12 1024.5R
44100 DUCK FRF   0724      65                N/A     2/ 6
44056 DUCK FRF   0711      63                N/A     1/ 8
OREGON INLET NC  0700   73 75  190/ 13/ 18 1025.7R
HATTERAS NC      0700   74 75  180/  6/ 10 1025.2F
DIAMOND SHLS NC  0750   75 77  170/ 16/ 17 1025.6S   3/ 5   2/ 7
CAPE LOOKOUT NC  0800   74     170/ 11/ 12 1025.1S
$$


USA.gov is the U.S. government's official web portal to all federal, state and local government web resources and services.